Location: Spring Creek
(38.2870°N, 100.2160°W)
Time: 23:44:33
(UTC+00:00)

PAYLOAD A - Pass Details

Date: 08 May 2021
Orbit: 691 x 832 km, 98.4° (Epoch: 21 June)

Event Time Altitude Azimuth Distance (km) Brightness Sun altitude
Rises 10:52:12 0° 6° (N) 3,127 7.7 -8.6°
Reaches altitude 10° 10:54:33 10° 360° (N) 2,187 6.8 -8.2°
Maximum altitude 10:59:05 45° 288° (WNW) 946 4.2 -7.4°
Drops below altitude 10° 11:03:31 10° 216° (SW) 2,139 5.8 -6.6°
Enters shadow 11:04:56 - 212° (SSW) 2,697 6.3 -6.4°
